Content
SEND FEEDBACK

Daily
Averages
Monthly
Summary
United States of America

ST. LOUIS, MISSOURI


Home > North America > United States > Missouri
Elevation: 163 meters     Latitude: 38 45N     Longitude: 090 22W

WEATHER
 
SELECT A DAY
Number of Records: 200,528;   Date Range: 1/1/95 - 11/23/14
 
SHARE

PRINT THIS DATA

[ ← Previous Day ]
WEATHER ALMANAC - 4 MAY, 2013
[ Next Day → ]
[ °F ]   °C
Weather ElementAverageHighLow
Temperature6.7 °C10.6 °C (4:54 pm)4 °C (4:14 am)
Dewpoint3.7 °C6.1 °C (10:54 pm)2 °C (5:15 am)
Humidity81.7 %93 % (12:54 am)63 % (5:54 pm)
Barometer1013.2 hPa1016.6 hPa (9:54 pm)1011.2 hPa (1:54 am)
Wind Speed6.1 km/h14.8 km/h (2:54 pm)
Weather ElementAverage
Visibility16.1 km
Wind DirectionENE (83.5 °)

Weather ElementTotal
Precipitation---
Heating Degree Days11.1 (Base 18.3)
Averaged from 31 records on 4 May, 2013
WEATHER CONDITIONS BREAKOUT
WIND DIRECTION BREAKOUT
WEATHER BY HOUR - 4 MAY, 2013
[ °F ]   °C
Local TimeTemperatureDewpointHumidityBarometerVisibilityWind DirectionWind SpeedGust SpeedPrecipitationEventsConditions
12:54 AM4.4 °C3.3 °C93 %1011.5 hPa16.1 kmSW (230°)9.3 km/hOvercast
1:54 AM4.4 °C2.8 °C89 %1011.2 hPa16.1 kmSSW (210°)5.6 km/h0 mmOvercast
2:54 AM4.4 °C2.8 °C89 %1011.5 hPa16.1 kmSSW (200°)5.6 km/hOvercast
3:54 AM4.4 °C2.8 °C89 %1011.5 hPa16.1 kmCalmOvercast
4:14 AM4 °C3 °C93 %1011.2 hPa16.1 kmCalmOvercast
4:26 AM4 °C3 °C93 %1011.2 hPa16.1 kmSSW (210°)5.6 km/hOvercast
4:54 AM4.4 °C2.8 °C89 %1011.9 hPa16.1 kmSouth (170°)5.6 km/hOvercast
5:15 AM4 °C2 °C87 %1011.2 hPa16.1 kmCalmOvercast
5:32 AM4 °C3 °C93 %1011.5 hPa16.1 kmCalmOvercast
5:54 AM4.4 °C2.8 °C89 %1011.9 hPa16.1 kmCalmOvercast
6:54 AM4.4 °C2.8 °C89 %1012.9 hPa16.1 kmCalmMostly Cloudy
7:14 AM5 °C3 °C87 %1012.2 hPa16.1 kmCalmScattered Clouds
7:22 AM4 °C3 °C93 %1012.5 hPa16.1 kmCalmMostly Cloudy
7:54 AM5 °C2.8 °C86 %1013.5 hPa16.1 kmEast (90°)5.6 km/hMostly Cloudy
8:54 AM6.1 °C2.8 °C80 %1013.5 hPa16.1 kmSSE (160°)7.4 km/hMostly Cloudy
9:54 AM6.1 °C2.8 °C80 %1013.5 hPa16.1 kmSouth (170°)9.3 km/hMostly Cloudy
10:01 AM6 °C2 °C76 %1013.2 hPa16.1 kmSouth (170°)9.3 km/hOvercast
10:54 AM7.2 °C3.3 °C76 %1013.9 hPa16.1 kmVariable5.6 km/hOvercast
11:54 AM7.2 °C3.3 °C76 %1013.9 hPa16.1 kmVariable5.6 km/hOvercast
12:54 PM8.3 °C3.9 °C74 %1013.9 hPa16.1 kmENE (60°)9.3 km/hOvercast
1:54 PM8.9 °C3.9 °C71 %1013.9 hPa16.1 kmENE (70°)11.1 km/hOvercast
2:54 PM9.4 °C4.4 °C71 %1013.9 hPa16.1 kmENE (60°)14.8 km/hOvercast
3:54 PM10 °C5 °C71 %1014.2 hPa16.1 kmNE (40°)11.1 km/hOvercast
4:54 PM10.6 °C5 °C68 %1014.2 hPa16.1 kmEast (90°)11.1 km/hOvercast
5:54 PM10.6 °C3.9 °C63 %1014.2 hPa16.1 kmENE (70°)7.4 km/hOvercast
6:54 PM10 °C3.9 °C66 %1014.6 hPa16.1 kmNE (50°)9.3 km/hOvercast
7:54 PM9.4 °C5.6 °C77 %1015.2 hPa16.1 kmNE (40°)7.4 km/hOvercast
8:54 PM9.4 °C5.6 °C77 %1016.3 hPa16.1 kmENE (60°)13 km/hOvercast
9:54 PM8.9 °C5.6 °C80 %1016.6 hPa16.1 kmENE (60°)11.1 km/hOvercast
10:54 PM8.9 °C6.1 °C83 %1016.3 hPa16.1 kmNNE (20°)5.6 km/hOvercast
11:54 PM8.3 °C6.1 °C86 %1016.3 hPa16.1 kmNorth (360°)5.6 km/hMostly Cloudy
Hourly data recorded from KSUS, located 0 kilometers away from St. Louis, Missouri







STORIES FROM OUR PARTNERS